[Date Prev][Date Next][Thread Prev][Thread Next] - [Date Index][Thread Index][Author Index]

2 Line ISS Keps 8-11



ISS
1 25544U 98067A   05222.85769517  .00014268  00000-0  11304-3 0  1185
2 25544 051.6453 340.9929 0001104 221.9287 279.5687 15.71607619384281
----
Via the sarex mailing list at AMSAT.ORG courtesy of AMSAT-NA.
To unsubscribe, send "unsubscribe sarex" to Majordomo@amsat.org



AMSAT Top AMSAT Home